Weather in Monte Plata

Dominican Republic     18°48′44″N   69°47′10″W
temp.,
°C
wind,
m/s
gust,
m/s
humid.,
%
clouds,
%
prec.,
mm/h
press.,
hPa
HPBL,
m
20 april, tue
tue2023:00+22sse229094 0.0 101847
02:00+21s01942 0.0 101712
05:00+20se11956 0.0 101712
08:00+24sse23785 0.0 1019331
11:00+32sse45410 0.0 10191807
14:00+34sse76350 0.0 10162519
17:00+30sse65450 0.0 10161521
20:00+24sse35731 0.0 1018120
21 april, wed
wed2123:00+21se11910 0.0 101912
02:00+21n01930 0.0 101711
05:00+20nnw119451 0.0 101711
08:00+24ne117669 0.0 1019250
11:00+32ese35393 0.0 10182007
14:00+35sse652782 0.0 10152889
17:00+30sse6547100 0.0 10151353
20:00+24sse367673 0.0 1017190
22 april, thu
thu2223:00+22ese118694 0.0 101813
02:00+21nne1189100 0.0 101611
05:00+21n119149 0.0 101614
08:00+24ne017612 0.0 1018264
11:00+31sse344631 0.1 10171969
14:00+35sse65248 0.1 10132730
17:00+32sse643942 0.0 10131766
20:00+24sse24720 0.0 101682
23 april, fri
fri2323:00+22nne01870 0.0 101711
02:00+21nnw22910 0.0 101634
05:00+21n22952 0.0 101633
08:00+25n23745 0.0 1017411
11:00+29ese346134 2.1 10171152
14:00+29e336481 9.1 1015876
17:00+24ese358397 7.8 1014182
20:00+23n1293100 10.4 101666
24 april, sat
sat2423:00+23n259363 0.1 1017208
02:00+22nne25968 0.3 1016123
05:00+21n23978 0.2 101578
08:00+24ne27840 0.4 1017494
11:00+29e456055 1.3 10171454
14:00+30s355781 4.3 10151004
17:00+29sse345657 0.5 1014524
20:00+24ne13740 0.7 101678